W5IM Weather Reports


Display with metric or nautical units.
time (UTC)temp
F
wind
direction
speed
MPH
gust
MPH
rain 1hr
in
rain 24hr
in
rain mn
in
humidity
%
barometer
mb
20260507051013 72 34 12.0 15.0 0.00 0.00 0.00 75 1010.8
20260507050513 73 34 12.0 18.0 0.00 0.00 0.00 75 1010.8
20260507050013 73 28 12.0 18.0 0.00 0.00 0.00 75 1010.8
20260507045513 73 27 10.0 17.0 0.00 0.00 0.00 75 1010.8
20260507045014 73 29 12.0 20.0 0.00 0.00 0.00 75 1010.8
20260507044512 74 21 10.0 15.0 0.00 0.00 0.00 75 1010.7
20260507043513 74 25 8.0 14.0 0.00 0.00 0.00 79 1010.6
20260507043013 74 22 9.0 14.0 0.00 0.00 0.00 79 1010.5
20260507042513 74 42 11.0 16.0 0.00 0.00 0.00 78 1010.5
20260507042013 74 22 11.0 16.0 0.00 0.00 0.00 78 1010.4
20260507041513 75 17 12.0 17.0 0.00 0.00 0.00 78 1010.3
20260507041013 75 22 12.0 15.0 0.00 0.00 0.00 78 1010.3
20260507040513 76 12 12.0 15.0 0.00 0.00 0.00 76 1010.1
20260507040014 76 22 10.0 15.0 0.00 0.00 0.00 77 1010.1
20260507035512 76 29 11.0 16.0 0.00 0.00 0.00 76 1010.0
20260507035013 77 26 10.0 15.0 0.00 0.00 0.00 76 1009.9
20260507034514 77 28 10.0 14.0 0.00 0.00 0.00 76 1009.9
20260507034013 78 22 10.0 15.0 0.00 0.00 0.00 75 1009.8
20260507033514 80 23 7.0 9.0 0.00 0.00 0.00 87 1009.7
20260507033013 80 74 7.0 8.0 0.00 0.00 0.00 87 1009.5
20260507032014 80 99 5.0 8.0 0.00 0.00 0.00 88 1009.3
20260507031517 80 122 5.0 7.0 0.00 0.00 0.00 88 1009.2
20260507031014 80 113 6.0 10.0 0.00 0.00 0.00 88 1009.1
20260507030513 80 122 5.0 8.0 0.00 0.00 0.00 88 1008.9
20260507030013 80 138 6.0 9.0 0.00 0.00 0.00 88 1008.7
20260507025513 80 125 7.0 10.0 0.00 0.00 0.00 88 1008.7
20260507025013 80 121 6.0 10.0 0.00 0.00 0.00 89 1008.7
20260507023513 80 137 3.0 5.0 0.00 0.00 0.00 88 1008.5
20260507023013 80 157 5.0 6.0 0.00 0.00 0.00 88 1008.4
20260507022513 80 162 5.0 6.0 0.00 0.00 0.00 87 1008.4
20260507022013 80 172 3.0 6.0 0.00 0.00 0.00 87 1008.4
20260507021512 80 169 5.0 7.0 0.00 0.00 0.00 87 1008.3
20260507021013 80 157 5.0 7.0 0.00 0.00 0.00 86 1008.1
20260507020513 80 149 5.0 7.0 0.00 0.00 0.00 86 1008.0
20260507020014 81 159 5.0 6.0 0.00 0.00 0.00 85 1007.8
20260507015513 81 158 3.0 6.0 0.00 0.00 0.00 85 1007.8
20260507015013 81 147 5.0 8.0 0.00 0.00 0.00 85 1007.7
20260507014513 81 133 6.0 9.0 0.00 0.00 0.00 85 1007.6
20260507014013 81 142 6.0 9.0 0.00 0.00 0.00 85 1007.5
20260507013013 81 149 6.0 8.0 0.00 0.00 0.00 84 1007.3
20260507012513 81 144 6.0 9.0 0.00 0.00 0.00 84 1007.2
20260507012015 81 145 7.0 10.0 0.00 0.00 0.00 84 1007.2
20260507011513 81 143 8.0 12.0 0.00 0.00 0.00 83 1007.0
20260507011015 82 145 9.0 14.0 0.00 0.00 0.00 83 1007.0
20260507010513 82 145 9.0 13.0 0.00 0.00 0.00 82 1006.8
20260507010012 82 140 10.0 16.0 0.00 0.00 0.00 82 1006.7
20260507005512 83 140 11.0 16.0 0.00 0.00 0.00 81 1006.6
20260507005014 83 137 12.0 16.0 0.00 0.00 0.00 80 1006.6
20260507004513 83 134 10.0 13.0 0.00 0.00 0.00 78 1006.6
20260507004014 83 124 10.0 15.0 0.00 0.00 0.00 78 1006.6
20260507003513 84 123 8.0 13.0 0.00 0.00 0.00 77 1006.6
20260507003013 84 122 10.0 13.0 0.00 0.00 0.00 76 1006.5
20260507002512 84 122 6.0 12.0 0.00 0.00 0.00 76 1006.5
20260507002013 85 123 7.0 13.0 0.00 0.00 0.00 76 1006.4
20260507001515 85 117 8.0 13.0 0.00 0.00 0.00 75 1006.3
20260507000513 85 125 9.0 13.0 0.00 0.00 0.00 74 1006.1
20260506235014 86 114 8.0 13.0 0.00 0.00 0.00 73 1005.9
20260506234013 86 113 9.0 12.0 0.00 0.00 0.00 71 1005.9
20260506233513 86 134 9.0 12.0 0.00 0.00 0.00 72 1006.0
20260506233013 86 130 8.0 13.0 0.00 0.00 0.00 72 1005.9
20260506232512 86 126 9.0 13.0 0.00 0.00 0.00 71 1005.9
20260506232014 87 125 8.0 12.0 0.00 0.00 0.00 72 1005.8
20260506231513 87 126 9.0 14.0 0.00 0.00 0.00 70 1005.8
20260506230513 87 132 9.0 13.0 0.00 0.00 0.00 72 1005.8
20260506225512 87 136 8.0 12.0 0.00 0.00 0.00 71 1005.8
20260506225013 87 146 8.0 10.0 0.00 0.00 0.00 71 1005.8
20260506224512 87 137 7.0 12.0 0.00 0.00 0.00 71 1005.8
20260506224013 87 117 7.0 12.0 0.00 0.00 0.00 71 1005.9
20260506223513 87 137 9.0 13.0 0.00 0.00 0.00 71 1005.8
20260506223013 88 141 9.0 14.0 0.00 0.00 0.00 70 1005.7
20260506222013 88 147 9.0 12.0 0.00 0.00 0.00 67 1005.6
20260506221512 88 133 7.0 12.0 0.00 0.00 0.00 67 1005.6
20260506220513 88 137 9.0 12.0 0.00 0.00 0.00 69 1005.6
20260506220012 87 150 9.0 12.0 0.00 0.00 0.00 69 1005.6
20260506215513 88 153 7.0 12.0 0.00 0.00 0.00 68 1005.6
20260506215014 88 132 7.0 10.0 0.00 0.00 0.00 69 1005.7
20260506214513 88 131 7.0 12.0 0.00 0.00 0.00 67 1005.7
20260506214012 88 139 9.0 13.0 0.00 0.00 0.00 68 1005.7
20260506213512 88 142 5.0 9.0 0.00 0.00 0.00 69 1005.8
20260506213013 88 142 7.0 10.0 0.00 0.00 0.00 68 1005.8
20260506212513 88 114 3.0 8.0 0.00 0.00 0.00 68 1005.9
20260506212012 87 141 4.0 9.0 0.00 0.00 0.00 67 1005.9
20260506211512 87 126 3.0 8.0 0.00 0.00 0.00 69 1005.9
20260506211013 87 106 5.0 7.0 0.00 0.00 0.00 69 1006.0
20260506210513 86 138 4.0 7.0 0.00 0.00 0.00 71 1006.1
20260506210013 86 162 5.0 7.0 0.00 0.00 0.00 71 1006.1
20260506205512 86 151 5.0 7.0 0.00 0.00 0.00 72 1006.2
20260506205013 86 150 6.0 8.0 0.00 0.00 0.00 72 1006.1
20260506204513 86 137 4.0 7.0 0.00 0.00 0.00 71 1006.2
20260506204013 86 144 5.0 7.0 0.00 0.00 0.00 72 1006.3
20260506203512 86 150 3.0 7.0 0.00 0.00 0.00 73 1006.4
20260506203012 86 132 3.0 6.0 0.00 0.00 0.00 73 1006.4
20260506202512 86 151 3.0 8.0 0.00 0.00 0.00 73 1006.5
20260506202012 85 161 4.0 8.0 0.00 0.00 0.00 73 1006.5
20260506201512 85 114 6.0 9.0 0.00 0.00 0.00 73 1006.6
20260506201013 85 141 5.0 8.0 0.00 0.00 0.00 73 1006.6
20260506200513 85 179 5.0 8.0 0.00 0.00 0.00 72 1006.7
20260506200012 85 159 5.0 7.0 0.00 0.00 0.00 72 1006.9
20260506195513 86 164 5.0 7.0 0.00 0.00 0.00 72 1006.9
20260506195013 86 126 7.0 9.0 0.00 0.00 0.00 71 1007.0
20260506194512 86 192 3.0 9.0 0.00 0.00 0.00 72 1007.0
20260506194012 86 154 5.0 9.0 0.00 0.00 0.00 72 1007.1
20260506193513 86 193 3.0 6.0 0.00 0.00 0.00 72 1007.3
20260506193012 86 172 5.0 8.0 0.00 0.00 0.00 72 1007.3
20260506192513 86 185 3.0 5.0 0.00 0.00 0.00 72 1007.5
20260506192013 86 207 3.0 8.0 0.00 0.00 0.00 72 1007.5
20260506191515 86 155 4.0 7.0 0.00 0.00 0.00 73 1007.5
20260506190513 86 75 1.0 5.0 0.00 0.00 0.00 73 1007.6
20260506190013 85 353 2.0 5.0 0.00 0.00 0.00 74 1007.6
20260506185513 85 348 1.0 3.0 0.00 0.00 0.00 76 1007.7
20260506185013 84 130 2.0 5.0 0.00 0.00 0.00 76 1007.8
20260506184512 84 97 1.0 3.0 0.00 0.00 0.00 76 1007.8
20260506184013 84 129 2.0 5.0 0.00 0.00 0.00 76 1007.9
20260506182514 83 75 0.0 2.0 0.00 0.00 0.00 80 1008.0
20260506182012 83 235 1.0 2.0 0.00 0.00 0.00 79 1008.1
20260506181013 83 11 1.0 3.0 0.00 0.00 0.00 80 1008.3
20260506180512 83 33 2.0 3.0 0.00 0.00 0.00 81 1008.3
20260506180012 82 54 0.0 2.0 0.00 0.00 0.00 81 1008.4
20260506175512 82 64 0.0 3.0 0.00 0.00 0.00 81 1008.4
20260506175012 82 50 2.0 3.0 0.00 0.00 0.00 81 1008.3
20260506174512 82 77 0.0 3.0 0.00 0.00 0.00 81 1008.3
20260506174013 82 147 2.0 2.0 0.00 0.00 0.00 81 1008.3
20260506173512 82 247 0.0 0.0 0.00 0.00 0.00 81 1008.4
20260506173013 82 247 0.0 2.0 0.00 0.00 0.00 82 1008.4
20260506172513 82 240 1.0 2.0 0.00 0.00 0.00 81 1008.3
20260506172013 82 221 2.0 3.0 0.00 0.00 0.00 80 1008.3
20260506171515 82 206 1.0 3.0 0.00 0.00 0.00 80 1008.3
20260506171012 82 210 1.0 6.0 0.00 0.00 0.00 80 1008.2
20260506170513 82 225 3.0 6.0 0.00 0.00 0.00 80 1008.1
20260506170012 82 204 4.0 7.0 0.00 0.00 0.00 80 1008.0
20260506165513 82 189 5.0 7.0 0.00 0.00 0.00 80 1008.1
20260506165013 82 218 5.0 8.0 0.00 0.00 0.00 79 1008.0
20260506164513 82 204 5.0 10.0 0.00 0.00 0.00 79 1008.0
20260506163512 82 203 5.0 10.0 0.00 0.00 0.00 80 1007.8
20260506163013 82 208 6.0 10.0 0.00 0.00 0.00 81 1007.8
20260506162512 81 181 6.0 9.0 0.00 0.00 0.00 82 1007.7
20260506162013 81 196 7.0 10.0 0.00 0.00 0.00 82 1007.7
20260506161512 81 185 6.0 10.0 0.00 0.00 0.00 82 1007.7
20260506161012 81 194 7.0 10.0 0.00 0.00 0.00 80 1007.7
20260506160512 82 182 5.0 9.0 0.00 0.00 0.00 81 1007.6
20260506160012 82 195 5.0 8.0 0.00 0.00 0.00 79 1007.5
20260506155512 82 175 6.0 12.0 0.00 0.00 0.00 81 1007.4
20260506155012 82 164 5.0 9.0 0.00 0.00 0.00 79 1007.4
20260506154513 82 178 6.0 9.0 0.00 0.00 0.00 80 1007.4
20260506153512 82 179 7.0 13.0 0.00 0.00 0.00 78 1007.3
20260506153013 82 194 7.0 14.0 0.00 0.00 0.00 79 1007.3
20260506152512 82 200 10.0 16.0 0.00 0.00 0.00 79 1007.3
20260506151512 82 155 9.0 14.0 0.00 0.00 0.00 80 1007.2
20260506151012 82 168 7.0 12.0 0.00 0.00 0.00 80 1007.2
20260506150512 82 191 6.0 10.0 0.00 0.00 0.00 80 1007.2
20260506150012 81 168 6.0 13.0 0.00 0.00 0.00 83 1007.3
20260506145513 81 193 5.0 12.0 0.00 0.00 0.00 83 1007.2
20260506145013 81 165 5.0 12.0 0.00 0.00 0.00 83 1007.2
20260506144515 81 177 9.0 14.0 0.00 0.00 0.00 82 1007.2
20260506143013 81 164 6.0 9.0 0.00 0.00 0.00 85 1007.2
20260506142512 80 159 8.0 13.0 0.00 0.00 0.00 85 1007.2
20260506141511 80 165 7.0 12.0 0.00 0.00 0.00 85 1007.2
20260506141012 80 152 9.0 12.0 0.00 0.00 0.00 86 1007.2
20260506140512 79 172 7.0 13.0 0.00 0.00 0.00 87 1007.1
20260506140012 79 150 9.0 12.0 0.00 0.00 0.00 87 1007.2
20260506135512 79 156 8.0 12.0 0.00 0.00 0.00 87 1007.3
20260506135012 79 155 8.0 10.0 0.00 0.00 0.00 88 1007.2
20260506134512 79 149 8.0 12.0 0.00 0.00 0.00 88 1007.2
20260506134012 79 152 9.0 12.0 0.00 0.00 0.00 89 1007.1
20260506133513 78 148 9.0 10.0 0.00 0.00 0.00 88 1007.2
20260506133013 78 135 7.0 10.0 0.00 0.00 0.00 89 1007.2
20260506132512 78 139 7.0 10.0 0.00 0.00 0.00 89 1007.2
20260506132012 78 148 7.0 10.0 0.00 0.00 0.00 88 1007.2
20260506131512 78 139 7.0 12.0 0.00 0.00 0.00 89 1007.2
20260506131012 78 148 8.0 10.0 0.00 0.00 0.00 89 1007.2
20260506130512 78 139 7.0 10.0 0.00 0.00 0.00 89 1007.2
20260506130012 78 141 6.0 9.0 0.00 0.00 0.00 90 1007.1
20260506125513 78 139 7.0 9.0 0.00 0.00 0.00 89 1006.9
20260506125012 78 139 7.0 9.0 0.00 0.00 0.00 90 1006.9
20260506124512 78 147 6.0 9.0 0.00 0.00 0.00 90 1006.9
20260506124012 78 143 7.0 9.0 0.00 0.00 0.00 90 1006.9
20260506123512 77 147 7.0 9.0 0.00 0.00 0.00 90 1006.8
20260506123012 77 144 7.0 9.0 0.00 0.00 0.00 90 1006.8
20260506122012 77 142 7.0 10.0 0.00 0.00 0.00 90 1006.8
20260506121512 77 143 7.0 10.0 0.00 0.00 0.00 90 1006.8
20260506121012 77 143 8.0 10.0 0.00 0.00 0.00 90 1006.8
20260506120512 77 143 7.0 9.0 0.00 0.00 0.00 90 1006.7
20260506120014 77 146 7.0 10.0 0.00 0.00 0.00 90 1006.7
20260506115011 77 143 7.0 9.0 0.00 0.00 0.00 90 1006.6
20260506114512 77 144 7.0 10.0 0.00 0.00 0.00 90 1006.6
20260506114012 77 141 6.0 8.0 0.00 0.00 0.00 90 1006.6
20260506113512 77 138 6.0 8.0 0.00 0.00 0.00 90 1006.6
20260506113013 77 150 5.0 8.0 0.00 0.00 0.00 90 1006.7
20260506112512 77 150 5.0 8.0 0.00 0.00 0.00 90 1006.7
20260506112012 77 147 6.0 9.0 0.00 0.00 0.00 90 1006.6
20260506111512 77 146 6.0 10.0 0.00 0.00 0.00 90 1006.5
20260506111013 77 148 7.0 9.0 0.00 0.00 0.00 90 1006.5
20260506110513 77 139 7.0 10.0 0.00 0.00 0.00 90 1006.5
20260506110013 77 142 6.0 8.0 0.00 0.00 0.00 90 1006.6
20260506105513 77 139 6.0 7.0 0.00 0.00 0.00 90 1006.7
20260506105012 77 140 6.0 8.0 0.00 0.00 0.00 90 1006.6
20260506104512 77 137 6.0 8.0 0.00 0.00 0.00 90 1006.6
20260506103513 77 132 5.0 8.0 0.00 0.00 0.00 90 1006.6
20260506103013 77 140 6.0 8.0 0.00 0.00 0.00 90 1006.7
20260506102511 77 137 7.0 9.0 0.00 0.00 0.00 90 1006.7
20260506102012 77 133 7.0 9.0 0.00 0.00 0.00 90 1006.7
20260506101013 77 146 5.0 7.0 0.00 0.00 0.00 90 1006.6
20260506100512 77 150 5.0 7.0 0.00 0.00 0.00 90 1006.5
20260506100012 77 143 5.0 6.0 0.00 0.00 0.00 90 1006.5
20260506095013 77 149 3.0 5.0 0.00 0.00 0.00 90 1006.5
20260506094512 77 137 3.0 5.0 0.00 0.00 0.00 89 1006.7
20260506094017 77 132 3.0 6.0 0.00 0.00 0.00 89 1006.6
20260506093513 78 137 3.0 5.0 0.00 0.00 0.00 88 1006.6
20260506093015 78 158 5.0 7.0 0.00 0.00 0.00 88 1006.5
20260506092512 78 168 5.0 9.0 0.00 0.00 0.00 88 1006.5
20260506092012 78 161 5.0 9.0 0.00 0.00 0.00 87 1006.6
20260506091512 78 156 6.0 9.0 0.00 0.00 0.00 87 1006.6
20260506091012 78 144 7.0 14.0 0.00 0.00 0.00 86 1006.6
20260506090512 78 151 9.0 12.0 0.00 0.00 0.00 85 1006.5
20260506090012 78 156 8.0 12.0 0.00 0.00 0.00 85 1006.4
20260506085513 78 156 8.0 12.0 0.00 0.00 0.00 85 1006.3
20260506085011 78 151 9.0 13.0 0.00 0.00 0.00 86 1006.3
20260506084512 78 159 7.0 12.0 0.00 0.00 0.00 85 1006.3
20260506083512 79 161 7.0 12.0 0.00 0.00 0.00 85 1006.4
20260506083012 79 152 7.0 10.0 0.00 0.00 0.00 85 1006.4
20260506082012 78 163 9.0 14.0 0.00 0.00 0.00 85 1006.4
20260506081511 78 158 7.0 13.0 0.00 0.00 0.00 85 1006.3
20260506073012 78 149 7.0 14.0 0.00 0.00 0.00 85 1006.5
20260506072511 79 156 8.0 13.0 0.00 0.00 0.00 85 1006.5
20260506072012 78 161 7.0 13.0 0.00 0.00 0.00 86 1006.5
20260506071512 78 155 10.0 14.0 0.00 0.00 0.00 87 1006.5
20260506071012 78 168 9.0 12.0 0.00 0.00 0.00 87 1006.5
20260506062511 78 158 8.0 13.0 0.00 0.00 0.00 87 1006.8
20260506062012 78 161 9.0 13.0 0.00 0.00 0.00 88 1006.9
20260506061512 78 161 9.0 14.0 0.00 0.00 0.00 88 1006.9
20260506061012 78 158 10.0 14.0 0.00 0.00 0.00 88 1006.9
20260506060512 78 154 10.0 14.0 0.00 0.00 0.00 87 1006.9